格洛纳斯M-746 COSMOS 2478 [GLONASS-M]

导读 | 星芒AI

COSMOS 2478 是一颗俄罗斯 GLONASS-M 导航卫星,于 2014 年 1 月 30 日由联盟号火箭从普列谢茨克航天发射场发射。该卫星属于 GLONASS 系统的现代化升级计划,旨在提供更精确的全球定位和导航服务。GLONASS-M 卫星相比早期型号具有更长的使用寿命、更高的精度和增强的抗干扰能力。COSMOS 2478 运行在中地球轨道,是俄罗斯全球导航卫星系统的重要组成部分,支持民用和军用导航需求。

基本信息
目录编号:
37938
目录名称:
COSMOS 2478 (GLONASS)
国际标识:
2011-071A
轨道中心:
EARTH
卫星名称:
格洛纳斯M-746
卫星全名:
格洛纳斯M-746 COSMOS 2478 [GLONASS-M]
卫星状态:
在轨 (已飞行5087 天)
发射日期:
2011-11-28 UTC
国别 :
俄罗斯(独联体) (CIS)
星等 :
--
轨道信息
数据来源 国际轨道数据
星历时间: 2025-10-26T17:42:39+0800
5天前
查看轨道信息
半长轴: 25514.922km
偏心率: 0.0018302
轨道倾角: 65.597°
近地点辐角 222.784°
升交点赤经 322.751°
平近点角 317.716°
近地点: 19090.089km
远地点: 19183.485km
周期: 676.007分钟
每日圈数: 2.130156
详细信息
平衡模式:
三轴稳定
覆盖范围:
全球
运营商:
列舍特涅夫卫星信息系统
运营商所在国:
俄罗斯
制造商(研发单位):
列舍特涅夫卫星信息系统
制造商所在国:
俄罗斯
使用方式:
暂无
卫星简介
格洛纳斯(GLONASS )是苏联/俄罗斯研制卫星导航系统。标准配置为24颗卫星,其中18颗卫星就能保证该系统为俄罗斯境内用户提供全部服务。该卫星已退役。
2D轨道图
3D轨道图
轨道高度分析图
轨道倾角分析图
轨道综合分析图
查看轨道综合分析图